#timestamp,LO_Frequency,Hit,StdDev 
1628517615.3,286046999.4,N
1628517635.2,286046998.5,N
1628517655.0,286046999.8,N
1628517655.9,286046999.8,N
1628517675.7,286047004.4,N
1628517695.6,286047004.4,N
1628517715.4,286047006.0,N
1628517735.3,286047005.6,N
1628517755.1,286047005.7,N
1628517756.0,286047005.7,N
1628517775.8,286047005.6,N
1628517795.7,286047005.8,N
1628517815.5,286047003.3,N
1628517835.3,286047005.6,N
1628517855.2,286047003.1,N
1628517875.0,286047003.3,N
1628517875.9,286047003.3,N
1628517895.8,286047005.7,N
1628517915.6,286047003.2,N
1628517935.4,286047003.0,N
1628517955.3,286047004.1,N
1628517975.1,286046999.8,N
1628517995.8,286046998.4,N
1628518015.7,286046998.5,N
1628518035.5,286047000.6,N
1628518055.4,286047000.9,N
1628518075.2,286046999.8,N
1628518095.0,286047000.0,N
1628518095.9,286047000.0,N
1628518115.8,286047001.2,N
1628518135.6,286046998.2,N
1628518155.5,286046999.2,N
1628518175.3,286046997.7,N
1628518195.1,286046995.3,N
1628518215.9,286046995.2,N
1628518235.7,286046995.7,N
1628518255.5,286046995.4,N
1628518275.4,286046997.2,N
1628518295.2,286046999.4,N
1628518315.1,286046999.4,N
1628518316.0,286046999.4,N
1628518335.8,286046998.3,N
1628518355.6,286047000.4,N
1628518375.5,286047001.3,N
1628518395.3,286047003.5,N
1628518415.2,286047004.2,N
1628518435.9,286047003.8,N
1628518455.7,286047004.3,N
1628518475.6,286047001.7,N
1628518495.4,286047001.4,N
1628518515.2,286047004.4,N
1628518535.1,286047003.4,N
1628518536.0,286047003.4,N
1628518555.8,286047005.5,N
1628518575.7,286047003.5,N
1628518595.5,286047003.1,N
1628518615.3,286047003.9,N
1628518635.2,286047004.2,N
1628518655.0,286047002.0,N
1628518655.9,286047002.0,N
1628518675.8,286047000.1,N
1628518695.6,286047001.0,N
1628518715.4,286046999.2,N
1628518735.3,286046996.7,N
1628518755.1,286046997.1,N
1628518775.8,286046998.0,N
1628518795.7,286046996.9,N
1628518815.5,286046995.4,N
1628518835.4,286046995.2,N
1628518855.2,286046995.8,N
1628518875.0,286046997.1,N
1628518875.9,286046997.1,N
1628518895.8,286046997.1,N
1628518915.6,286046995.4,N
1628518935.4,286046995.2,N
1628518955.3,286046995.5,N
1628518975.1,286046996.0,N
1628518995.9,286046995.5,N
1628519015.7,286046995.4,N
1628519035.5,286046997.5,N
1628519055.4,286046997.1,N
1628519075.2,286046996.5,N
1628519095.0,286046995.4,N
1628519095.9,286046995.4,N
1628519115.8,286046997.6,N
1628519135.6,286046995.1,N
1628519155.5,286046995.8,N
1628519175.3,286046995.8,N
1628519195.1,286046996.2,N
1628519215.9,286046993.4,Y
1628519235.7,286046999.4,P
1628519255.5,286046999.3,N
1628519275.4,286046996.6,N
1628519295.2,286046996.9,N
1628519315.1,286046999.1,N
1628519316.0,286046999.1,N
1628519335.8,286046999.1,N
1628519355.6,286046998.9,N
1628519375.5,286046999.2,N
1628519395.3,286046999.2,N
1628519415.2,286046996.5,Y
1628519435.9,286047001.1,P
1628519455.7,286047000.7,N
1628519475.6,286047000.5,N
1628519495.4,286047002.8,N
1628519515.2,286047000.6,N
1628519535.1,286047002.8,N
1628519536.0,286047002.8,N
1628519555.8,286046999.8,N
1628519575.7,286047002.6,N
1628519595.5,286047002.6,N
1628519615.3,286047000.1,N
1628519635.2,286047002.7,N
1628519655.0,286047002.0,N
1628519655.9,286047002.0,N
1628519675.8,286047001.3,N
1628519695.6,286047003.6,N
1628519715.4,286047001.3,N
1628519735.3,286047004.2,Y
1628519755.1,286047002.6,P
1628519775.8,286047001.6,N
1628519795.7,286047001.5,P
1628519815.5,286047001.4,N
1628519835.4,286047001.3,N
1628519855.2,286047002.0,Y
1628519875.0,286047001.2,P
1628519875.9,286047001.2,P
1628519895.8,286046998.4,P
1628519915.6,286046998.4,N
1628519935.5,286046996.5,N
1628519955.3,286046999.0,N
1628519975.1,286046999.2,N
1628519995.9,286046999.1,N
1628520015.7,286047001.2,N
1628520035.5,286046998.8,N
1628520055.4,286047001.1,N
1628520075.2,286047000.9,N
1628520095.1,286046998.2,N
1628520096.0,286046998.2,N
1628520115.8,286047000.3,N
1628520135.6,286047002.7,N
1628520155.5,286047000.8,N
1628520175.3,286046998.2,N
1628520195.1,286047000.8,N
1628520215.9,286047000.7,N
1628520235.7,286047000.5,N
1628520255.6,286047000.9,N
1628520275.4,286047000.2,N
1628520295.2,286047000.2,N
1628520315.1,286047000.4,N
1628520316.0,286047000.4,N
1628520335.8,286047000.0,N
1628520355.7,286046999.9,N
1628520375.5,286047000.7,N
1628520395.3,286047002.7,N
1628520415.2,286047002.5,N
1628520435.9,286047004.4,Y
1628520455.7,286047001.3,P
1628520475.6,286047002.0,P
1628520495.4,286046999.7,N
1628520515.3,286047002.1,N
1628520535.1,286047002.7,N
1628520536.0,286047002.7,N
1628520555.8,286047002.1,N
1628520575.7,286047004.3,Y
1628520595.5,286047000.3,P
1628520615.3,286047000.3,N
1628520635.2,286047000.4,N
1628520655.0,286047000.5,N
1628520655.9,286047000.5,N
1628520675.8,286047000.2,N
1628520695.6,286047000.6,N
1628520715.4,286046999.8,N
1628520735.3,286047002.7,Y
1628520755.1,286047002.3,P
1628520775.9,286047002.8,P
1628520795.7,286047000.0,N
1628520815.5,286046999.9,N
1628520835.4,286047000.5,N
1628520855.2,286047001.1,N
1628520875.0,286046999.0,N
1628520875.9,286046999.0,N
1628520895.8,286046999.5,N
1628520915.6,286047000.9,N
1628520935.5,286047000.2,N
1628520955.3,286047002.4,N
1628521005.2,286047001.6,E
1628521015.1,286046999.8,N
1628521016.0,286046999.8,P
1628521035.8,286047000.3,P
1628521055.7,286047001.0,Y
1628521075.5,286047001.0,P
1628521095.3,286046998.1,P
1628521115.2,286046998.9,N
1628521135.0,286046998.4,N
1628521135.9,286046998.4,N
1628521155.7,286046999.6,N
1628521175.6,286046996.7,Y
1628521195.4,286046999.3,P
